Location: *
(41.0833°N, 73.4167°W)
Time: 22:35:26
(UTC+00:00)

Cosmos 2228 - Pass Details

Date: 22 October 2019
Orbit: 588 x 619 km, 82.5° (Epoch: 22 November)

Event Time Altitude Azimuth Distance (km) Brightness Sun altitude
Rises 10:10:33 0° 338° (NNW) 2,837 6.2 -12.4°
Reaches altitude 10° 10:13:04 10° 325° (NW) 1,927 5.2 -11.9°
Maximum altitude 10:16:29 24° 271° (W) 1,235 4.0 -11.3°
Drops below altitude 10° 10:19:53 10° 217° (SW) 1,909 5.3 -10.6°
Sets 10:22:22 0° 204° (SSW) 2,804 6.2 -10.2°
